Wind_Speed
3 3 3 2 1 1 1 1 2 2 3 4 5 5 6 6 6 6 6 6 6 6 6 6 6 5 5 5 5 4 4 4 4 4 5 5 5 5 5 5 5 6 6
2 2 2 1 0 1 1 1 1 0 1 2 2 3 3 3 4 4 4 4 4 4 4 4 3 3 3 3 3 3 3 3 3 3 4 4 5 5 5 5 5 5 6
1 1 1 1 0 1 2 2 2 2 1 1 0 1 1 1 1 1 1 2 2 1 1 1 1 1 1 1 2 2 2 2 3 3 3 4 5 5 5 5 5 5 5
1 1 1 1 1 2 3 4 4 4 4 3 2 2 2 2 2 2 2 1 1 1 2 2 2 2 2 2 2 2 3 3 3 3 3 4 4 5 5 5 5 5 5
1 2 2 3 3 4 5 6 6 6 6 6 5 5 4 4 4 3 3 3 3 3 3 3 4 4 4 4 4 4 4 4 4 4 4 4 5 5 5 5 5 6 6
2 3 4 5 5 6 7 7 8 8 8 8 8 7 7 6 6 6 5 5 5 5 5 5 6 6 6 6 6 6 6 5 6 6 6 6 6 6 6 6 6 6 7
5 5 6 7 8 9 9 9 9 9 9 9 10 9 9 9 8 8 7 7 7 7 7 7 7 8 8 8 8 8 8 8 7 8 7 7 8 8 8 8 8 8 8
6 6 7 9 10 10 11 11 11 11 11 11 11 11 11 10 10 9 9 9 9 9 9 9 9 9 9 9 10 10 10 10 10 10 10 10 10 10 10 10 10 10 9
6 7 9 10 11 12 12 12 13 13 13 13 13 13 13 12 12 12 12 11 11 11 11 11 10 11 11 11 11 12 12 13 12 12 12 12 12 12 12 12 12 11 11
9 10 11 12 12 13 14 15 15 15 15 15 15 15 15 15 15 15 14 14 13 13 13 13 12 13 13 13 13 13 14 14 15 15 15 15 15 15 15 14 14 14 13
11 12 13 14 15 15 16 16 17 17 17 18 18 18 18 18 18 17 17 16 16 16 16 15 15 15 15 15 15 16 16 16 16 17 17 17 17 17 17 17 16 16 15
13 14 15 16 18 18 18 19 19 19 20 20 21 22 21 21 21 20 19 19 18 18 18 18 18 17 17 17 17 17 18 18 18 18 19 19 19 20 20 19 19 18 18
15 16 17 18 19 20 20 22 22 22 22 22 22 23 23 23 23 22 21 22 21 21 21 21 20 20 20 19 19 19 20 20 20 20 20 21 21 21 22 22 22 21 20
17 18 19 19 20 21 21 23 23 23 22 22 22 22 23 23 22 23 23 23 23 23 22 22 21 21 21 21 20 20 20 21 23 23 22 23 23 23 23 24 24 24 23
19 20 20 21 21 22 23 24 24 24 23 22 22 22 22 21 21 22 23 24 24 24 23 23 23 22 21 21 21 21 21 22 22 24 24 24 25 26 25 25 26 26 26
21 21 21 22 22 21 21 21 21 22 21 21 21 22 23 22 22 22 21 22 23 23 23 24 24 24 24 23 23 23 23 24 24 25 26 26 27 27 28 28 27 28 27
20 21 22 21 20 21 21 20 19 19 21 20 19 19 20 20 21 22 23 23 24 25 25 25 25 25 26 25 25 25 25 25 26 27 27 27 28 29 30 30 30 29 30
19 19 19 19 18 18 18 18 18 19 19 19 19 20 20 22 23 23 24 24 25 26 27 27 26 26 26 27 28 27 26 26 27 27 27 28 28 29 31 31 32 32 32
18 17 17 17 17 16 16 17 17 18 19 20 20 21 23 23 24 25 26 26 26 27 28 28 28 28 28 28 29 29 28 28 29 28 28 29 30 29 31 33 33 34 34
17 16 16 16 15 15 15 16 17 18 19 20 21 23 24 24 26 27 27 28 28 29 30 30 30 30 30 30 30 31 30 30 30 30 29 30 30 31 31 32 34 35 36
13 13 13 14 15 15 16 17 18 20 21 22 23 24 25 26 27 28 29 29 30 30 31 31 32 32 32 32 33 33 33 33 32 33 32 32 32 33 32 33 34 35 36
12 13 13 14 15 16 18 19 20 22 23 24 25 26 27 28 29 30 30 31 31 31 31 32 32 33 33 33 34 34 34 35 34 34 35 34 34 34 34 33 34 34 35
11 12 13 14 15 17 19 21 23 24 25 26 27 28 29 30 31 31 31 32 32 32 32 32 32 33 33 33 34 34 34 35 36 35 35 36 35 35 35 34 35 35 35
11 12 13 15 17 19 21 23 24 26 27 29 30 30 30 31 31 31 31 31 31 32 32 32 33 33 33 33 33 34 35 35 35 35 36 36 36 36 36 36 36 36 37
12 14 16 17 19 21 23 24 26 27 29 29 30 30 30 30 30 31 31 31 31 31 31 32 32 33 33 33 33 34 34 35 35 35 36 37 37 38 38 37 37 37 37
14 16 18 19 21 23 24 25 27 28 28 28 28 29 30 30 30 30 30 30 31 31 31 31 32 32 32 33 33 34 34 34 35 36 36 37 38 39 39 39 38 38 38
Wind_Direction
94 100 95 88 54 14 20 55 87 101 102 103 100 94 92 90 86 83 79 74 72 71 70 70 72 78 82 86 89 93 100 108 112 120 125 128 130 133 135 138 142 141 139
90 97 93 95 113 314 313 312 326 340 102 99 94 87 86 86 82 78 76 72 68 66 62 62 63 73 87 94 98 103 110 119 126 135 142 143 142 143 144 148 149 149 148
39 59 80 97 239 281 289 287 291 288 285 299 343 24 42 51 52 49 53 58 50 40 31 24 19 26 114 136 134 133 138 143 148 156 164 164 159 156 155 156 156 157 157
328 329 338 266 260 268 277 282 287 288 282 279 282 285 291 307 317 318 313 317 316 308 294 287 294 279 253 223 203 187 184 181 179 182 183 182 176 172 168 165 168 170 169
296 281 293 291 283 279 279 281 284 287 283 280 279 278 279 282 287 292 293 292 289 284 280 277 278 275 266 245 233 223 213 210 206 203 201 197 192 188 185 181 180 182 183
281 267 276 285 287 287 286 285 284 284 282 281 279 277 276 275 277 281 281 282 282 279 276 273 274 275 268 256 246 239 232 227 225 219 214 210 206 204 201 197 193 191 192
276 271 279 285 288 290 289 286 285 284 282 280 279 278 276 274 274 274 274 275 278 279 277 273 274 276 273 265 254 247 242 236 232 227 222 219 216 213 210 207 203 199 198
280 276 277 285 288 289 287 283 283 283 282 281 280 280 278 274 272 271 272 274 276 276 275 272 273 273 272 270 261 252 247 243 237 231 227 224 221 218 216 212 208 205 202
285 284 286 287 284 287 286 283 282 282 280 279 278 277 277 275 273 272 272 274 275 273 271 270 269 268 269 270 265 255 249 245 241 236 231 227 225 222 220 216 212 209 207
286 286 288 288 284 283 285 284 283 282 279 277 275 274 273 272 272 271 270 273 273 272 269 267 265 266 267 267 264 258 254 249 244 240 235 230 228 226 223 220 217 214 211
282 281 282 282 281 280 280 281 280 281 278 276 274 271 272 273 271 270 269 270 271 272 270 267 265 265 266 265 263 259 255 253 248 242 240 235 231 228 226 224 222 218 216
279 279 277 275 276 279 278 278 277 277 275 272 274 273 272 271 270 269 269 270 271 271 269 268 267 265 266 265 263 260 255 253 251 247 241 238 235 231 228 226 225 223 219
279 277 276 278 279 279 278 279 279 275 275 273 272 272 272 272 269 269 269 268 269 271 271 269 267 267 266 266 265 262 259 254 252 251 245 240 238 236 232 228 227 226 222
279 277 277 280 281 279 277 276 277 277 278 279 279 279 281 284 279 274 274 273 273 274 274 271 270 270 270 269 266 263 262 259 255 252 251 246 240 238 236 231 228 227 225
280 280 279 279 278 278 279 281 279 280 279 279 282 283 284 286 287 288 283 279 279 277 276 273 273 273 273 272 268 267 262 258 258 254 254 250 243 240 238 234 231 229 228
280 280 280 279 276 277 281 284 284 284 285 284 282 283 283 284 285 287 285 285 287 282 282 279 277 273 271 271 270 267 266 262 258 256 253 250 245 242 239 237 234 231 231
284 282 280 281 279 280 281 286 288 285 285 289 289 289 289 288 288 291 288 286 286 284 283 282 280 276 271 269 269 267 266 264 261 258 253 250 246 242 240 238 237 235 234
283 282 280 280 283 288 290 292 293 289 288 292 293 293 293 292 290 291 290 287 285 282 281 280 278 277 275 270 267 266 266 264 261 258 255 251 248 245 241 239 239 237 235
281 281 281 283 287 290 293 294 295 294 293 293 295 294 293 291 290 289 289 285 285 283 281 279 277 276 273 270 267 265 266 264 262 259 257 253 250 248 243 240 240 237 235
277 281 281 283 288 293 294 297 298 298 297 296 297 296 294 293 291 291 289 288 285 283 280 278 277 275 272 270 268 265 264 263 261 258 257 254 252 248 245 243 241 238 236
279 283 286 288 293 296 298 299 299 299 298 298 297 296 295 294 293 292 291 289 286 284 281 279 277 274 272 270 268 265 264 263 261 258 256 255 252 249 247 245 243 240 237
283 285 290 295 298 299 300 301 300 300 299 298 298 297 296 295 294 293 291 290 287 284 281 279 276 274 272 269 267 265 262 262 260 258 255 253 250 248 246 245 243 241 238
290 293 295 299 299 300 301 301 300 300 300 300 299 298 297 295 294 293 292 290 288 285 282 279 276 274 271 269 266 264 262 260 259 257 254 251 248 247 245 245 242 241 239
296 299 300 300 300 301 301 301 302 303 303 303 301 300 299 297 296 295 293 291 288 286 283 280 278 275 272 269 266 264 262 260 258 256 253 250 248 246 244 244 243 241 239
298 299 300 302 302 302 303 304 304 304 304 303 303 302 301 300 299 297 294 291 289 286 284 281 279 276 273 270 268 265 263 261 258 255 252 249 248 246 244 244 243 241 239
301 303 304 304 304 304 305 305 304 304 304 304 304 304 303 302 300 298 295 293 290 287 285 282 280 277 275 272 269 267 265 262 259 255 252 249 247 246 245 243 242 240 238
Height
5922 5921 5920 5920 5919 5919 5919 5919 5918 5918 5917 5916 5916 5915 5915 5914 5914 5913 5913 5912 5912 5911 5911 5911 5910 5910 5910 5909 5909 5908 5908 5907 5907 5907 5906 5906 5906 5907 5907 5907 5907 5908 5908
5922 5921 5920 5920 5920 5919 5919 5919 5918 5918 5917 5916 5916 5915 5915 5914 5914 5914 5913 5913 5912 5912 5912 5911 5911 5910 5910 5910 5909 5909 5908 5908 5908 5907 5907 5907 5907 5907 5908 5908 5908 5909 5909
5921 5920 5920 5920 5920 5920 5919 5919 5918 5917 5917 5916 5916 5915 5915 5914 5914 5914 5913 5913 5912 5912 5912 5911 5911 5911 5910 5910 5910 5909 5909 5909 5908 5908 5908 5908 5908 5908 5908 5909 5909 5910 5910
5919 5919 5920 5920 5920 5919 5919 5918 5918 5917 5916 5916 5915 5915 5914 5914 5914 5913 5913 5913 5912 5912 5912 5911 5911 5910 5910 5910 5910 5909 5909 5909 5908 5908 5908 5908 5908 5908 5909 5909 5910 5910 5911
5918 5918 5919 5919 5919 5919 5918 5918 5917 5916 5915 5915 5914 5914 5914 5913 5913 5912 5912 5912 5911 5911 5911 5910 5910 5910 5909 5909 5909 5909 5909 5909 5908 5908 5908 5908 5908 5909 5909 5910 5910 5911 5912
5917 5917 5917 5917 5917 5917 5917 5916 5916 5915 5914 5914 5913 5913 5912 5912 5911 5911 5911 5910 5910 5910 5910 5909 5909 5909 5908 5908 5908 5908 5908 5908 5908 5908 5908 5908 5908 5909 5909 5910 5911 5911 5912
5916 5915 5915 5915 5915 5915 5915 5914 5914 5913 5913 5912 5912 5911 5911 5910 5910 5909 5909 5909 5908 5908 5908 5907 5907 5907 5907 5906 5906 5906 5906 5907 5907 5907 5907 5908 5908 5908 5909 5910 5911 5911 5912
5914 5914 5913 5913 5913 5913 5913 5912 5911 5911 5910 5910 5909 5909 5909 5908 5908 5907 5907 5907 5906 5906 5906 5906 5905 5905 5905 5904 5904 5905 5905 5905 5905 5906 5906 5907 5907 5908 5909 5909 5910 5911 5912
5912 5912 5911 5911 5911 5910 5910 5909 5909 5908 5908 5907 5907 5907 5906 5906 5905 5905 5904 5904 5904 5904 5903 5903 5903 5902 5902 5902 5902 5902 5903 5903 5903 5904 5904 5905 5906 5907 5908 5908 5909 5910 5911
5910 5910 5909 5909 5908 5907 5907 5907 5906 5905 5905 5904 5904 5903 5903 5902 5901 5901 5901 5901 5901 5900 5900 5900 5900 5899 5899 5899 5899 5900 5900 5900 5901 5901 5902 5903 5904 5905 5906 5907 5908 5909 5910
5908 5907 5907 5906 5905 5905 5904 5904 5903 5902 5901 5901 5900 5899 5899 5898 5897 5897 5897 5897 5897 5897 5896 5896 5896 5896 5896 5896 5896 5896 5896 5897 5898 5898 5899 5900 5901 5902 5903 5905 5906 5907 5908
5905 5905 5904 5903 5902 5901 5901 5900 5899 5898 5897 5896 5896 5895 5894 5893 5893 5892 5892 5892 5892 5892 5892 5892 5892 5892 5892 5892 5892 5892 5892 5893 5894 5894 5896 5897 5898 5899 5900 5902 5903 5904 5906
5902 5901 5901 5900 5899 5898 5897 5896 5895 5894 5893 5892 5891 5890 5889 5888 5887 5887 5887 5886 5886 5886 5886 5886 5886 5886 5887 5887 5887 5888 5888 5889 5889 5890 5891 5893 5894 5896 5897 5898 5900 5901 5903
5899 5898 5897 5897 5896 5895 5893 5892 5891 5890 5889 5887 5886 5886 5885 5884 5883 5882 5882 5881 5881 5880 5880 5881 5880 5881 5881 5881 5882 5882 5883 5884 5884 5885 5887 5888 5889 5891 5893 5894 5896 5897 5899
5895 5894 5893 5893 5892 5891 5889 5888 5887 5886 5885 5884 5882 5881 5880 5879 5878 5878 5876 5876 5876 5875 5875 5874 5875 5875 5875 5876 5876 5877 5878 5878 5878 5879 5881 5882 5884 5886 5888 5889 5891 5893 5895
5891 5890 5889 5888 5887 5887 5885 5884 5882 5881 5880 5879 5878 5877 5876 5875 5874 5873 5872 5871 5871 5870 5870 5870 5869 5870 5870 5870 5871 5871 5872 5872 5873 5873 5874 5876 5877 5879 5881 5884 5886 5888 5890
5886 5886 5885 5883 5883 5882 5881 5880 5878 5877 5876 5875 5873 5872 5871 5870 5870 5869 5868 5866 5865 5865 5864 5864 5863 5863 5864 5864 5864 5865 5865 5866 5866 5867 5867 5869 5871 5873 5875 5877 5880 5882 5885
5882 5881 5880 5879 5879 5878 5877 5876 5875 5874 5872 5871 5870 5868 5867 5865 5865 5864 5862 5860 5859 5858 5858 5858 5857 5857 5857 5857 5857 5858 5858 5859 5859 5860 5861 5862 5864 5866 5868 5871 5873 5876 5878
5878 5877 5876 5876 5876 5875 5874 5873 5871 5870 5868 5867 5865 5864 5862 5860 5859 5858 5856 5854 5853 5852 5851 5850 5850 5850 5849 5849 5850 5850 5851 5852 5852 5853 5854 5855 5857 5859 5861 5864 5866 5868 5871
5874 5873 5873 5873 5872 5871 5870 5869 5867 5865 5864 5862 5860 5859 5857 5855 5853 5851 5849 5847 5846 5845 5844 5843 5842 5842 5841 5842 5842 5842 5843 5844 5844 5845 5846 5848 5849 5851 5853 5856 5858 5861 5864
5869 5870 5869 5869 5869 5867 5866 5865 5863 5861 5859 5857 5855 5853 5851 5848 5846 5844 5842 5840 5839 5837 5836 5835 5834 5834 5833 5833 5834 5834 5835 5835 5836 5837 5838 5840 5842 5844 5846 5848 5851 5853 5856
5867 5867 5867 5866 5865 5864 5862 5860 5858 5856 5854 5852 5849 5847 5844 5841 5839 5836 5834 5832 5830 5829 5827 5826 5825 5825 5824 5824 5825 5825 5826 5828 5828 5828 5830 5832 5834 5835 5838 5840 5843 5846 5849
5865 5864 5863 5862 5861 5860 5858 5856 5853 5851 5848 5845 5843 5840 5837 5834 5831 5829 5826 5824 5822 5820 5819 5818 5816 5816 5816 5815 5815 5816 5817 5818 5818 5820 5821 5823 5825 5827 5830 5832 5835 5838 5841
5862 5861 5860 5859 5857 5855 5853 5850 5847 5844 5841 5838 5835 5832 5829 5826 5823 5820 5818 5816 5814 5812 5810 5809 5807 5807 5806 5806 5806 5807 5807 5808 5809 5810 5812 5813 5816 5818 5820 5823 5826 5829 5832
5859 5858 5857 5855 5853 5850 5848 5845 5841 5838 5835 5831 5828 5824 5820 5818 5815 5812 5809 5807 5805 5803 5802 5800 5799 5798 5797 5797 5797 5797 5798 5798 5799 5801 5802 5804 5806 5809 5811 5814 5818 5821 5824
5856 5855 5853 5851 5848 5845 5842 5839 5836 5832 5828 5825 5821 5817 5814 5810 5807 5804 5802 5799 5797 5795 5793 5791 5790 5789 5788 5787 5787 5787 5788 5789 5789 5791 5792 5794 5796 5799 5802 5805 5808 5812 5815